Regional Weather Roundup
Issued by NWS

Home | Current Version | Previous Version | Graphics & Text | Print | Product List | Glossary On
Versions: 1 2 3 4 5 6 7 8 9 10 11 12 13 14 15 16 17 18 19 20 21 22 23 24 25 26 27 28 29 30 31 32 33 34 35 36 37 38 39 40 41 42 43 44 45 46 47 48 49 50
000
ASUS43 KBIS 021520
RWRND

NORTH DAKOTA REGIONAL WEATHER ROUNDUP
NATIONAL WEATHER SERVICE BISMARCK ND
1000 AM CDT TUE SEP 02 2014

NOTE: "FAIR" INDICATES FEW OR NO CLOUDS BELOW 12,000 FEET WITH NO
SIGNIFICANT WEATHER AND/OR OBSTRUCTIONS TO VISIBILITY.


NDZ001>003-009>011-017-021600-
NORTHWEST NORTH DAKOTA

CITY           SKY/WX    TMP DP  RH WIND       PRES   REMARKS
WILLISTON      MOSUNNY   63  47  55 W15       29.78R
MINOT          MOSUNNY   65  51  60 S14       29.72F
MINOT AFB      SUNNY     64  57  78 S8        29.72F
$$

NDZ018>021-031>035-040>046-021600-
SOUTHWEST NORTH DAKOTA

CITY           SKY/WX    TMP DP  RH WIND       PRES   REMARKS
BISMARCK       MOSUNNY   61  51  70 S5        29.83F
DICKINSON      SUNNY     63  47  55 W14       29.83R
GARRISON         N/A     65  52  62 SW13G20   29.77S
HETTINGER ARPT MOSUNNY   62  49  62 W8        29.88F
$$

NDZ004>008-012>016-024-026-027-054-021600-
NORTHEAST NORTH DAKOTA

CITY           SKY/WX    TMP DP  RH WIND       PRES   REMARKS
GRAND FORKS    CLOUDY    62  54  74 W7        29.79R
GRND FRKS AFB  DRIZZLE   61  55  82 W7        29.81R
DEVILS LAKE    PTSUNNY   61  54  77 SW20      29.75S
$$

NDZ022-023-025-028>030-036>039-047>053-021600-
SOUTHEAST NORTH DAKOTA

CITY           SKY/WX    TMP DP  RH WIND       PRES   REMARKS
FARGO          MOSUNNY   64  53  67 SW10      29.83S
JAMESTOWN      MOSUNNY   64  53  67 SW8       29.81F
$$



USA.gov is the U.S. government's official web portal to all federal, state and local government web resources and services.